Home   Weather   Kansas City   Past weeks

Flag for USA Past Weather in Kansas City, Missouri, USA — Yesterday and Last 2 Weeks

Now
36 °F

Overcast.


Feels Like: 31 °F
Forecast: 32 / 47 °F
Wind: 6 mph from Northwest

Location: Kansas City Downtown Airport

Current Time: Oct 15, 2018 at 5:39:38 am

Latest Report: Oct 15, 2018 at 4:54 am


Visibility: 10 mi

Pressure: 30.32 "Hg

Humidity: 82%

Dew Point: 31 °F

Location of Kansas CityLocation

Past Weather in Kansas City — Graph

°F

Kansas City Temperature Yesterday

Maximum temperature yesterday: 53 °F (at 12:08 pm)
Minimum temperature yesterday: 35 °F (at 11:54 pm)
Average temperature yesterday: 46 °F

High & Low Weather Summary for the Past Weeks

 TemperatureHumidityPressure
High91 °F (Oct 3, 2:54 pm)93% (Oct 7, 1:54 am)30.32 "Hg (Oct 7, 1:54 am)
Low35 °F (Oct 14, 11:54 pm)45% (Oct 3, 2:54 pm)29.64 "Hg (Oct 9, 4:54 pm)
Average62 °F78%29.97 "Hg
* Reported Sep 30 3:54 am — Oct 15 3:54 am, Kansas City. Weather by CustomWeather, © 2018

Note: Actual official high and low records may vary slightly from our data, if they occured in-between our weather recording intervals... More about our weather records

Advertising

Kansas City Weather History for the Previous 24 Hours

Scroll right to see more
 ConditionsComfort  
Time TempWeatherWind HumidityBarometerVisibility
3:54 am
Mon, Oct 15
36 °FOvercast.9 mph82%30.32 "Hg10 mi
3:03 am36 °FMostly cloudy.8 mph85%30.31 "Hg10 mi
2:54 am36 °FMostly cloudy.12 mph85%30.32 "Hg10 mi
2:05 am36 °FOvercast.12 mph85%30.30 "Hg10 mi
1:54 am35 °FMostly cloudy.10 mph88%30.30 "Hg9 mi
1:37 am35 °FLight snow. Low clouds.12 mph88%30.30 "Hg9 mi
12:54 am36 °FOvercast.12 mph82%30.30 "Hg10 mi
11:54 pm
Sun, Oct 14
35 °FOvercast.8 mph88%30.28 "Hg10 mi
10:54 pm36 °FLight snow. Fog.13 mph85%30.27 "Hg6 mi
10:31 pm37 °FLight rain. Fog.9 mph86%30.25 "Hg5 mi
10:05 pm37 °FLight rain. Fog.15 mph86%30.22 "Hg4 mi
9:21 pm38 °FOvercast.13 mph83%30.19 "Hg10 mi
8:54 pm38 °FOvercast.12 mph86%30.18 "Hg10 mi
8:01 pm38 °FLight rain. Overcast.14 mph86%30.17 "Hg10 mi
6:54 pm40 °FLight rain. Low clouds.16 mph89%30.13 "Hg7 mi
5:54 pm41 °FLow clouds.13 mph86%30.10 "Hg9 mi
4:54 pm40 °FRain. Fog.9 mph89%30.07 "Hg3 mi
4:01 pm41 °FRain. Fog.17 mph86%30.03 "Hg5 mi
3:29 pm42 °FHeavy rain. Fog.16 mph85%30.05 "Hg1 mi
2:54 pm44 °FLight rain. Fog.17 mph89%30.03 "Hg1 mi
2:30 pm46 °FLight rain. Fog.18 mph86%30.00 "Hg1 mi
1:54 pm53 °FMore clouds than sun.8 mph80%29.98 "Hg10 mi
12:54 pm53 °FMostly cloudy.6 mph80%29.99 "Hg10 mi
12:08 pm53 °FMostly cloudy.7 mph83%29.98 "Hg10 mi
10:54 am51 °FLow clouds.5 mph86%29.99 "Hg10 mi
9:54 am50 °FLow clouds.6 mph86%29.98 "Hg10 mi
8:54 am50 °FLow clouds.5 mph86%29.96 "Hg10 mi
7:54 am50 °FLow clouds.6 mph86%29.95 "Hg10 mi
6:54 am50 °FLow clouds.6 mph86%29.93 "Hg10 mi
5:54 am51 °FLow clouds.5 mph83%29.92 "Hg10 mi
Weather by CustomWeather, © 2018

See weather overview